Regional Weather Roundup
Issued by NWS

Home | Current Version | Previous Version | Graphics & Text | Print | Product List | Glossary On
Versions: 1 2 3 4 5 6 7 8 9 10 11 12 13 14 15 16 17 18 19 20 21 22 23 24 25 26 27 28 29 30 31 32 33 34 35 36 37 38 39 40 41 42 43 44 45 46 47 48 49 50
000
ASUS45 KSLC 280110
RWRUT

UTAH REGIONAL WEATHER ROUNDUP
NATIONAL WEATHER SERVICE SALT LAKE CITY UT
700 PM MDT SUN JUL 27 2014

UTZ001>011-023>025-280200-

NORTHERN UTAH

CITY           SKY/WX    TMP DP  RH WIND       PRES   REMARKS
HILL AFB       MOSUNNY   95  34  11 NW10      30.12F HX  90
LOGAN          SUNNY     96  33  11 N6        30.09F HX  91
OGDEN          SUNNY     96  32  10 N9        30.08F HX  90
PROVO AIRPORT  NOT AVBL
SALT LAKE CITY MOSUNNY   95  39  14 NW12      30.05F HX  91
VERNAL         MOSUNNY   88  47  24 S6        30.17F
WENDOVER       MOSUNNY   95  36  12 CALM      30.07F HX  90
HEBER CITY     MOSUNNY   88  32  13 CALM      30.19S
WEST JORDAN    SUNNY     95  54  24 W5        30.11S HX  93

$$

UTZ012>022-026-027-280200-

SOUTHERN UTAH

CITY           SKY/WX    TMP DP  RH WIND       PRES   REMARKS
BRYCE CANYON   TSTM      61  54  77 N14G24    30.42R
CEDAR CITY     CLOUDY    73  57  57 S7        30.20F
MILFORD        CLOUDY    91  47  21 SW16G29   30.13R
MOAB/CYNLANDS  SUNNY     94  43  17 SE10      30.05S HX  90
PRICE          PTSUNNY   89  37  16 N13       30.21F
ST GEORGE      PTCLDY    95  50  21 SW9       29.99R HX  92
KANAB            N/A     84  54  34 NE3       30.19S

$$

REGIONAL REPORTS     COLORADO/ARIZONA

CITY           SKY/WX    TMP DP  RH WIND       PRES   REMARKS
CRAIG, CO      MOSUNNY   80  39  23 VRB3      30.27F
GRAND JUNCTION PTSUNNY   87  49  26 SE26G33   30.14R
RIFLE          PTSUNNY   87  40  19 S18       30.19R
MONTROSE       CLOUDY    80  49  33 W12       30.29S
CORTEZ         SUNNY     86  45  23 N6        30.21R
PAGE, AZ       SUNNY     97  47  18 N9        30.06S HX  93
GRAND CANYON   LGT RAIN  70  54  56 S8        30.31R
KINGMAN        MOSUNNY   91  52  26 SW15      30.06R
FLAGSTAFF      LGT RAIN  69  52  54 W10       30.36R

$$

REGIONAL REPORTS    NEVADA/IDAHO/WYOMING

CITY           SKY/WX    TMP DP  RH WIND       PRES   REMARKS
LAS VEGAS, NV  CLOUDY    91  56  30 SW15      29.92S THUNDER
ELY            CLOUDY    73  50  44 W13G20    30.31R
ELKO           CLOUDY    84  43  23 S12G25    30.17R
POCATELLO, ID  MOSUNNY   95  28   9 N7        30.12F
BURLEY         MOSUNNY   90  44  20 N7        30.06F
EVANSTON, WY   MOSUNNY   86  25  11 E8        30.34F
ROCK SPRINGS   SUNNY     85  21   9 CALM      30.32F

$$



USA.gov is the U.S. government's official web portal to all federal, state and local government web resources and services.